Location: Unspecified
(35.6961°N, 0.0000°E)
Time: 20:18:53
(UTC+00:00)

S-56A Canister/Altair - Pass Details

Date: 05 June 2019
Orbit: 633 x 2499 km, 38.9° (Epoch: 23 June)

Event Time Altitude Azimuth Distance (km) Brightness Sun altitude
Rises 18:42:25 0° 196° (SSW) 3,467 10.8 4.7°
Reaches altitude 10° 18:47:00 10° 164° (SSE) 2,232 9.5 3.8°
Maximum altitude 18:48:36 11° 145° (SE) 2,056 9.2 3.5°
Drops below altitude 10° 18:50:08 10° 125° (SE) 2,091 9.2 3.2°
Sets 18:53:59 0° 91° (E) 2,918 9.9 2.5°
